Total_Precipitation_Accumulation
0.03 0.03 0.03 0.08 0.13 0.12 0.68 1.07 1.36 1.46 2.14 1.95 1.72 1.05 0.88 0.84 1.13 1.14 0.99 1.17 1.30 0.81 0.54 0.41 0.36 0.40 0.36 0.28 0.32 0.29 0.36 0.32
0.01 0.02 0.05 0.08 0.12 0.31 0.81 1.22 1.53 1.21 0.82 0.63 0.89 0.83 0.78 0.87 0.93 0.90 0.74 0.90 0.98 1.24 0.80 0.48 0.32 0.43 0.47 0.39 0.25 0.16 0.17 0.26
0.02 0.04 0.10 0.14 0.27 0.38 0.41 0.37 0.54 0.22 0.15 0.24 0.54 0.61 0.68 0.70 0.87 0.72 0.68 0.84 0.75 0.89 0.87 0.73 0.32 0.32 0.39 0.43 0.43 0.25 0.13 0.22
0.02 0.09 0.13 0.15 0.15 0.17 0.06 0.06 0.27 0.22 0.10 0.16 0.41 0.69 0.79 0.93 1.25 1.08 0.69 0.80 0.82 0.76 0.78 0.81 0.47 0.34 0.40 0.33 0.35 0.24 0.14 0.14
0.01 0.01 0.02 0.02 0.02 0.03 0.02 0.07 0.13 0.18 0.20 0.24 0.32 0.64 0.68 0.78 0.81 1.03 0.73 0.64 0.67 0.59 0.55 0.79 0.72 0.47 0.39 0.36 0.31 0.22 0.13 0.11
0.00 0.01 0.02 0.01 0.04 0.04 0.10 0.13 0.15 0.12 0.18 0.32 0.23 0.32 0.46 0.65 0.82 1.13 1.26 0.89 0.63 0.59 0.54 0.70 0.75 0.58 0.55 0.40 0.38 0.39 0.24 0.12
0.01 0.02 0.02 0.03 0.12 0.17 0.16 0.13 0.14 0.16 0.22 0.27 0.29 0.21 0.19 0.26 0.52 0.83 1.45 1.46 0.92 0.59 0.56 0.64 0.74 0.73 0.63 0.58 0.57 0.43 0.40 0.30
0.02 0.02 0.06 0.09 0.20 0.22 0.16 0.13 0.13 0.17 0.21 0.27 0.24 0.21 0.13 0.14 0.18 0.32 0.66 1.47 1.42 0.82 0.47 0.49 0.73 0.85 0.77 0.69 0.78 0.77 0.56 0.58
0.01 0.04 0.06 0.10 0.30 0.22 0.10 0.05 0.05 0.07 0.10 0.22 0.18 0.16 0.15 0.14 0.16 0.23 0.28 0.48 1.03 1.03 0.74 0.43 0.60 0.96 0.94 0.94 0.99 1.13 1.23 1.37
0.01 0.02 0.05 0.11 0.22 0.16 0.05 0.02 0.01 0.06 0.10 0.11 0.15 0.22 0.12 0.17 0.37 0.28 0.43 0.40 0.69 0.94 1.09 0.95 0.72 0.84 1.11 1.22 1.26 1.52 1.61 1.54
0.01 0.01 0.02 0.07 0.16 0.16 0.19 0.12 0.08 0.07 0.06 0.08 0.09 0.20 0.19 0.21 0.34 0.22 0.31 0.39 0.65 1.01 1.31 1.60 1.53 1.11 1.08 1.57 1.70 1.59 1.55 1.46
0.03 0.00 0.00 0.04 0.15 0.18 0.25 0.38 0.26 0.13 0.07 0.07 0.12 0.33 0.31 0.33 0.35 0.40 0.43 0.62 0.80 1.07 1.43 1.90 2.43 2.12 1.71 1.53 1.53 1.44 1.26 1.19
0.10 0.06 0.02 0.04 0.14 0.21 0.15 0.31 0.31 0.33 0.19 0.17 0.25 0.44 0.43 0.46 0.61 0.62 0.74 0.91 0.98 1.20 1.48 1.84 2.18 2.50 2.31 1.99 1.71 1.56 1.52 1.28
0.04 0.07 0.06 0.12 0.19 0.26 0.16 0.17 0.19 0.29 0.43 0.49 0.35 0.48 0.45 0.74 0.81 1.09 1.26 1.32 1.44 1.47 1.48 1.54 1.71 1.82 2.12 1.91 1.51 1.21 1.19 1.14
0.10 0.13 0.14 0.16 0.25 0.38 0.39 0.48 0.41 0.44 0.50 0.52 0.41 0.43 0.52 0.67 0.76 0.89 1.32 1.45 1.23 0.99 0.87 0.71 0.63 0.75 1.02 1.25 1.33 1.40 1.25 1.19
0.20 0.19 0.25 0.23 0.30 0.38 0.52 0.48 0.48 0.54 0.57 0.59 0.50 0.63 1.00 1.09 1.13 0.97 0.78 0.65 0.60 0.49 0.42 0.34 0.30 0.44 0.86 0.92 1.07 1.10 1.32 1.26
0.24 0.19 0.21 0.25 0.31 0.34 0.46 0.55 0.49 0.46 0.45 0.41 0.57 0.72 0.64 0.70 0.64 0.49 0.33 0.32 0.40 0.43 0.31 0.26 0.27 0.28 0.73 0.92 1.08 1.06 1.22 1.49
0.15 0.21 0.17 0.27 0.29 0.30 0.42 0.55 0.55 0.40 0.34 0.34 0.37 0.37 0.36 0.31 0.23 0.25 0.30 0.31 0.27 0.30 0.42 0.33 0.22 0.33 0.76 0.70 1.06 0.87 0.98 1.37
0.06 0.09 0.06 0.12 0.26 0.44 0.51 0.54 0.59 0.55 0.36 0.26 0.18 0.14 0.14 0.17 0.27 0.34 0.35 0.33 0.25 0.24 0.32 0.60 0.55 0.62 0.84 0.62 0.76 0.78 0.85 1.12